Regional Weather Roundup
Issued by NWS

Home | Current Version | Previous Version | Text Only | Print | Product List | Glossary Off
Versions: 1 2 3 4 5 6 7 8 9 10 11 12 13 14 15 16 17 18 19 20 21 22 23 24 25 26 27 28 29 30 31 32 33 34 35 36 37 38 39 40 41 42 43 44 45 46 47 48 49 50

000
ASUS43 KOAX 201802
RWRNE

WEATHER ROUNDUP FOR NEBRASKA
NATIONAL WEATHER SERVICE OMAHA NE
100 PM CDT SUN MAY 20 2018

NOTES: SATELLITE DATA IS BEING USED TO AUGMENT CLOUD COVER ABOVE
       12000 FEET.
       "FAIR" INDICATES FEW OR NO CLOUDS BELOW 12,000 FEET WITH NO
       SIGNIFICANT WEATHER AND/OR OBSTRUCTIONS TO VISIBILITY.


NEZ001>004-019>022-054>056-201900-
NEBRASKA PANHANDLE

CITY           SKY/WX    TMP DP  RH WIND       PRES   REMARKS
SCOTTSBLUFF    SUNNY     56  40  55 VRB3      30.22F
6HR MIN TEMP:  43; 6HR MAX TEMP:  57;

ALLIANCE       MOSUNNY   56  37  49 VRB3      30.21F
6HR MIN TEMP:  40; 6HR MAX TEMP:  56;

CHADRON        CLOUDY    55  36  48 VRB3      30.23F
6HR MIN TEMP:  36; 6HR MAX TEMP:  56;

GORDON         FAIR      56  36  46 CALM      30.23S
6HR MIN TEMP:  37; 6HR MAX TEMP:  57;

KIMBALL        MOSUNNY   54  41  63 E5        30.23F
SIDNEY         SUNNY     57  38  48 NE7       30.23F
6HR MIN TEMP:  41; 6HR MAX TEMP:  57;

$$

NEZ057>060-069>072-079>082-201900-
SOUTHWEST NEBRASKA

CITY           SKY/WX    TMP DP  RH WIND       PRES   REMARKS
NORTH PLATTE   CLOUDY    58  45  62 NE10      30.20F
6HR MIN TEMP:  49; 6HR MAX TEMP:  58;

IMPERIAL       CLOUDY    57  43  59 N12       30.21F
6HR MIN TEMP:  46; 6HR MAX TEMP:  57;

LEXINGTON      CLOUDY    58  50  75 N13       30.18F
MCCOOK         CLOUDY    54  50  86 N12       30.19F
6HR MIN TEMP:  49; 6HR MAX TEMP:  54;

OGALLALA       CLOUDY    58  40  50 NE5       30.22S
$$

NEZ005>010-023>029-035>040-094-201900-
NORTH CENTRAL NEBRASKA

CITY           SKY/WX    TMP DP  RH WIND       PRES   REMARKS
VALENTINE      CLOUDY    58  35  42 NE9       30.22F
6HR MIN TEMP:  47; 6HR MAX TEMP:  59;

AINSWORTH      CLOUDY    57  43  59 N8        30.21F
BROKEN BOW     CLOUDY    57  48  72 N10       30.18F
6HR MIN TEMP:  49; 6HR MAX TEMP:  57;

O`NEILL        CLOUDY    55  47  74 N9        30.21F
ORD            CLOUDY    52  50  93 N12       30.17F
6HR MIN TEMP:  51; 6HR MAX TEMP:  52; 6HR PCP: TRACE;

THEDFORD       CLOUDY    57  44  61 N12       30.22S
$$

NEZ041-046>049-061>064-073>077-083>087-201900-
SOUTH CENTRAL NEBRASKA

CITY           SKY/WX    TMP DP  RH WIND       PRES   REMARKS
GRAND ISLAND   CLOUDY    56  53  90 N14       30.16F
6HR MIN TEMP:  53; 6HR MAX TEMP:  56; 6HR PCP:  0.08;

AURORA         CLOUDY    54  54 100 N13       30.15S FOG
HASTINGS       CLOUDY    56  53  90 NE14      30.15F
6HR MIN TEMP:  53; 6HR MAX TEMP:  57;

HEBRON         LGT RAIN  57  56  95 N9        30.12S
HOLDREGE       CLOUDY    55  53  93 N12       30.16F
KEARNEY        CLOUDY    55  52  89 N12       30.17S
YORK           CLOUDY    54  54 100 NE15      30.14F
$$

NEZ011>018-030>034-042>045-201900-
NORTHEAST NEBRASKA

CITY           SKY/WX    TMP DP  RH WIND       PRES   REMARKS
NORFOLK        CLOUDY    53  50  89 N10       30.16F
6HR MIN TEMP:  51; 6HR MAX TEMP:  53; 6HR PCP:  0.04;

ALBION         CLOUDY    55  51  88 NE9       30.18S
BLAIR          CLOUDY    54  52  94 N9        30.13F
COLUMBUS       CLOUDY    54  51  90 N13       30.16F
FREMONT        RAIN      55  52  91 N8        30.15F
TEKAMAH        CLOUDY    55  52  89 NE12      30.15F
6HR MIN TEMP:  53; 6HR MAX TEMP:  55; 6HR PCP:  0.04;

WAYNE          CLOUDY    53  52  96 N9        30.17F
$$

NEZ050>053-065>068-078-088>093-201900-
SOUTHEAST NEBRASKA

CITY           SKY/WX    TMP DP  RH WIND       PRES   REMARKS
LINCOLN        RAIN      56  53  90 NE12      30.14R FOG
6HR MIN TEMP:  56; 6HR MAX TEMP:  58; 6HR PCP:  0.05;

OMAHA EPPLEY   CLOUDY    58  54  86 N12       30.13S
6HR MIN TEMP:  56; 6HR MAX TEMP:  59; 6HR PCP:  0.11;

BEATRICE       CLOUDY    60  59  95 N10       30.10F FOG
FALLS CITY     CLOUDY    69  61  75 N6        30.04F
6HR MIN TEMP:  58; 6HR MAX TEMP:  69; 6HR PCP: TRACE;

NEBRASKA CITY  CLOUDY    63  59  86 NE12      30.09F
PLATTSMOUTH    CLOUDY    60  54  80 N9        30.11F
$$

NEZ044-045-051>053-067-201900-
OMAHA AREA

CITY           SKY/WX    TMP DP  RH WIND       PRES   REMARKS
OMAHA EPPLEY   CLOUDY    58  54  86 N12       30.13S
6HR MIN TEMP:  56; 6HR MAX TEMP:  59; 6HR PCP:  0.11;

BLAIR          CLOUDY    54  52  94 N9        30.13F
FREMONT        RAIN      55  52  91 N8        30.15F
MILLARD        LGT RAIN  57  54  89 N5        30.13S
OFFUTT AFB     CLOUDY    58  56  92 N7        30.11F
PLATTSMOUTH    CLOUDY    60  54  80 N9        30.11F
WAHOO          CLOUDY    55  51  86 N12       30.14S
$$




USA.gov is the U.S. government's official web portal to all federal, state and local government web resources and services.